sat.trackr.live / text

‹ back to catalog

STARLINK-34972

NORAD 65188 · 2025-175Q

PAYLOAD ACTIVE UNKNOWN

§ Identity

Operator
Country
US
Launch date
2025-08-14
Launch site
AFWTR
Launch vehicle
Mass (kg)
RCS (m²)

Purposes: comms

External: N2YO · Heavens-Above · Gunter

§ Orbital elements

Epoch: 2026-09-20T21:12:52.730496Z

Period
93.91 min
Inclination
97.2844°
Eccentricity
0.0001681
Mean motion
15.33439076 rev/d
Perigee alt
464.4 km
Apogee alt
466.7 km
Semi-major
6,843.7 km
B*
4.5887e-4
RAAN
132.8906°
Arg perigee
92.7475°
Mean anomaly
267.3960°
Rev number
6,216

§ Raw data

STARLINK-349721 65188U 25175Q   26263.88394364  .00014765  00000+0  45887-3 0  99992 65188  97.2844 132.8906 0001681  92.7475 267.3960 15.33439076 62162

JSON: /api/v1/satellites/65188 · /tle

For live sub-satellite position, see the globe view (requires WebGL).

§ Visibility from observer

Set your observer location to see the next 7 days of passes ≥ 10°. The values pass through the URL so the page stays shareable.

No JS? Fill the form by hand. The geolocation button needs JavaScript.